Beaufort, NC

4:12 AM EDT on April 30, 2017 (GMT -0400)
Smith

Weather History for KMRH - March, 2013

Change the Weather History Date:

Wednesday, March 6, 2013

  Actual Average Record
Temperature  
Mean Temperature 51 °F -  
Max Temperature 60 °F 62 °F 74 °F (1989)
Min Temperature 42 °F 43 °F 20 °F (1960)
Degree Days  
Heating Degree Days 14    
Growing Degree Days 1 (Base 50)    
Moisture  
Dew Point 38 °F    
Average Humidity 68    
Maximum Humidity 90    
Minimum Humidity 41    
Precipitation  
Precipitation 0.09 in - - ()
Sea Level Pressure  
Sea Level Pressure 29.64 in    
Wind  
Wind Speed 25 mph (WNW)    
Max Wind Speed 33 mph    
Max Gust Speed 48 mph    
Visibility 9 miles    
Events Rain    
Averages and records for this station are not official NWS values.
T = Trace of Precipitation, MM = Missing Value Source: NWS Daily Summary

Daily Weather History Graph

Daily Weather History Graph

Search for Another Location

Airport or City:

Trip Planner

Search our weather history database for the weather conditions in past years. The results will help you decide how hot, cold, wet, or windy it might be!

Date:

Astronomy

Mar. 06, 2013 Rise Set
Actual Time 6:29 AM EST 6:07 PM EST
Civil Twilight 6:03 AM EST 6:32 PM EST
Nautical Twilight 5:34 AM EST 7:01 PM EST
Astronomical Twilight 5:05 AM EST 7:30 PM EST
Moon 2:26 AM EST (3/6) 12:56 PM EST (3/6)
Length of Visible Light 12h 28m
Length of Day
11h 37m
Waning Crescent, 30% of the Moon is Illuminated
Mar 6
Waning Crescent
Mar 11
New
Mar 19
First Quarter
Mar 27
Full
Apr 3
Last Quarter

Hourly Weather History & Observations

Time (EST) Temp. Windchill Dew Point Humidity Pressure Visibility Wind Dir Wind Speed Gust Speed Precip Events Conditions
12:58 AM 60.1 °F - 55.9 °F 86% 29.62 in 3.0 mi SSW 24.2 mph 32.2 mph 0.07 in Rain Rain
1:58 AM 60.1 °F - 55.9 °F 86% 29.56 in 8.0 mi SSW 25.3 mph 36.8 mph 0.02 in   Mostly Cloudy
2:07 AM 59.0 °F - 55.4 °F 88% 29.55 in 7.0 mi SW 23.0 mph 31.1 mph N/A   Overcast
2:58 AM 57.9 °F - 54.0 °F 87% 29.52 in 7.0 mi SW 23.0 mph 35.7 mph N/A   Scattered Clouds
3:58 AM 55.9 °F - 53.1 °F 90% 29.50 in 7.0 mi WSW 13.8 mph 24.2 mph N/A   Clear
4:58 AM 55.0 °F - 51.1 °F 86% 29.50 in 8.0 mi WSW 17.3 mph 25.3 mph N/A   Scattered Clouds
5:58 AM 53.1 °F - 41.0 °F 64% 29.52 in 10.0 mi West 21.9 mph 32.2 mph N/A   Clear
6:58 AM 51.1 °F - 39.9 °F 66% 29.52 in 10.0 mi WSW 23.0 mph 29.9 mph N/A   Clear
7:58 AM 46.9 °F - 39.0 °F 74% 29.56 in 9.0 mi West 19.6 mph 28.8 mph N/A   Overcast
8:36 AM 44.6 °F 35.1 °F 37.4 °F 76% 29.58 in 10.0 mi WNW 27.6 mph 38.0 mph 0.00 in   Overcast
8:58 AM 46.0 °F 37.6 °F 36.0 °F 68% 29.59 in 10.0 mi West 24.2 mph 39.1 mph 0.00 in   Mostly Cloudy
9:10 AM 44.6 °F 35.5 °F 35.6 °F 71% 29.59 in 10.0 mi West 25.3 mph 35.7 mph N/A   Mostly Cloudy
9:18 AM 44.6 °F 34.7 °F 35.6 °F 71% 29.60 in 10.0 mi West 29.9 mph 36.8 mph N/A   Overcast
9:33 AM 42.8 °F 32.5 °F 35.6 °F 76% 29.61 in 10.0 mi West 28.8 mph 39.1 mph N/A   Overcast
9:58 AM 45.0 °F 36.0 °F 34.0 °F 65% 29.62 in 10.0 mi West 25.3 mph 33.4 mph N/A   Overcast
10:58 AM 48.9 °F - 28.9 °F 46% 29.60 in 10.0 mi West 31.1 mph 38.0 mph N/A   Scattered Clouds
11:58 AM 46.9 °F - 28.0 °F 48% 29.60 in 10.0 mi WNW 29.9 mph 40.3 mph N/A   Overcast
12:58 PM 48.0 °F - 27.0 °F 44% 29.59 in 10.0 mi WNW 27.6 mph 39.1 mph N/A   Overcast
1:58 PM 48.9 °F - 26.1 °F 41% 29.57 in 10.0 mi West 28.8 mph 43.7 mph N/A   Overcast
2:58 PM 46.9 °F - 27.0 °F 46% 29.59 in 10.0 mi WNW 26.5 mph 42.6 mph N/A   Overcast
3:58 PM 48.0 °F - 28.9 °F 48% 29.60 in 10.0 mi WNW 29.9 mph 47.2 mph N/A   Mostly Cloudy
4:58 PM 46.9 °F - 32.0 °F 56% 29.64 in 10.0 mi WNW 28.8 mph 41.4 mph N/A   Overcast
5:58 PM 45.0 °F 34.9 °F 34.0 °F 65% 29.68 in 10.0 mi NW 32.2 mph 47.2 mph 0.00 in   Overcast
6:58 PM 44.1 °F 34.4 °F 34.0 °F 68% 29.74 in 10.0 mi NW 27.6 mph 42.6 mph N/A   Overcast
7:58 PM 44.1 °F 33.5 °F 34.0 °F 68% 29.78 in 10.0 mi NW 33.4 mph 48.3 mph N/A   Overcast
8:58 PM 44.1 °F 34.2 °F 33.1 °F 65% 29.82 in 10.0 mi NNW 28.8 mph 41.4 mph N/A   Overcast
9:58 PM 44.1 °F 34.2 °F 34.0 °F 68% 29.86 in 10.0 mi NNW 28.8 mph 36.8 mph N/A   Overcast
10:44 PM 42.8 °F 33.1 °F 35.6 °F 76% 29.87 in 10.0 mi NW 25.3 mph 32.2 mph N/A   Overcast
10:58 PM 43.0 °F 33.5 °F 35.1 °F 74% 29.88 in 10.0 mi NNW 24.2 mph 36.8 mph N/A   Overcast
11:58 PM 43.0 °F 33.1 °F 34.0 °F 71% 29.89 in 10.0 mi NNW 26.5 mph 34.5 mph N/A   Overcast